[Iaude] MPEC R145: 2016 RQ33 [a=1.31,e=0.30,i=32.9,H=19.1]

mpec at mpc.eps.harvard.edu mpec at mpc.eps.harvard.edu
Tue Sep 13 22:15:16 EDT 2016


M.P.E.C. 2016-R145                               Issued 2016 Sept. 14, 02:11 UT
 
     The Minor Planet Electronic Circulars contain information on unusual
         minor planets and routine data on comets.  They are published
    on behalf of Division F of the International Astronomical Union by the
          Minor Planet Center, Smithsonian Astrophysical Observatory,
                          Cambridge, MA 02138, U.S.A.

             Prepared using the Tamkin Foundation Computer Network

                              MPC at CFA.HARVARD.EDU
            URL http://www.minorplanetcenter.net/    ISSN 1523-6714


                                   2016 RQ33
 
Observations:
     K16R33Q  C2016 08 19.59626 02 48 20.84 -31 01 45.1          22.7 RtER145F51
     K16R33Q  C2016 08 19.60850 02 48 20.26 -31 01 49.5          22.6 RtER145F51
     K16R33Q* C2016 09 07.54263 02 20 16.063-32 59 56.53         20.8 wLER145F51
     K16R33Q  C2016 09 07.55164 02 20 14.777-32 59 59.15         20.9 wLER145F51
     K16R33Q  C2016 09 07.56065 02 20 13.507-33 00 01.63         20.9 wLER145F51
     K16R33Q  C2016 09 07.56965 02 20 12.232-33 00 04.05         20.9 wLER145F51
     K16R33Q |C2016 09 08.33443 02 18 26.18 -33 03 15.9          21.0 VuER145807
     K16R33Q |C2016 09 08.33681 02 18 25.83 -33 03 16.6          21.2 VuER145807
     K16R33Q |C2016 09 08.33917 02 18 25.48 -33 03 17.1          21.4 VuER145807
     K16R33Q KC2016 09 08.35754102 18 22.83 -33 03 21.4          21.1 RqER145W85
     K16R33Q KC2016 09 08.36258402 18 22.11 -33 03 22.6          21.0 RqER145W85
     K16R33Q KC2016 09 08.36635402 18 21.56 -33 03 23.5          21.0 RqER145W85
     K16R33Q _C2016 09 08.59050902 17 49.932-33 04 28.04         20.7 RtER145568
     K16R33Q _C2016 09 08.59154502 17 49.771-33 04 28.24         20.3 RtER145568
     K16R33Q _C2016 09 08.59258002 17 49.626-33 04 28.52         20.1 RtER145568
     K16R33Q |C2016 09 09.25611 02 16 14.89 -33 06 57.9          21.1 VuER145807
     K16R33Q |C2016 09 09.25933 02 16 14.40 -33 06 58.8          21.0 VuER145807
     K16R33Q |C2016 09 09.26254 02 16 13.93 -33 06 59.5          21.1 VuER145807
     K16R33Q |C2016 09 12.28118 02 08 33.34 -33 16 22.6          21.2 VuER145807
     K16R33Q |C2016 09 12.28496 02 08 32.72 -33 16 23.4          21.1 VuER145807
     K16R33Q |C2016 09 12.28899 02 08 32.06 -33 16 24.0          21.3 VuER145807
 
Observer details:
568 Mauna Kea.  Observers R. J. Wainscoat, P. Forshay.  Measurers M. Micheli,
    R. J. Wainscoat.  3.6-m Canada-France-Hawaii Telescope + CCD.
807 Cerro Tololo.  Observers T. Linder, R. Holmes.  0.61-m f/6.5 astrograph
    + CCD.
F51 Pan-STARRS 1, Haleakala.  Observers B. Gibson, T. Goggia, N. Primak,
    A. Schultz, M. Willman.  Measurers K. Chambers, S. Chastel, L. Denneau,
    H. Flewelling, M. Huber, E. Lilly, E. Magnier, R. Wainscoat, C. Waters,
    R. Weryk, P. Veres.  1.8-m Ritchey-Chretien + CCD.
W85 Cerro Tololo-LCOGT A.  Observers T. Lister, S. Greenstreet, E. Gomez.
    Measurer T. Lister.  1.0-m f/8 Ritchey-Chretien + CCD.
 
Orbital elements:
2016 RQ33                                                Earth MOID = 0.0918 AU
Epoch 2016 July 31.0 TT = JDT 2457600.5                 MPC
M 101.12202              (2000.0)            P               Q
n   0.65938668     Peri.  173.19855     -0.90838341     +0.31675994
a   1.3073020      Node    30.17696     -0.40465013     -0.50148455
e   0.3023846      Incl.   32.88821     -0.10534631     -0.80509403
P   1.49           H   19.1           G   0.15           U   5
Residuals in seconds of arc
160819 F51  0.1-  0.2-    160908 807  0.2-  0.2-    160908 568  0.2+  0.1+
160819 F51  0.1+  0.2+    160908 807  0.3-  0.1-    160909 807  0.1+  0.1-
160907 F51  0.0   0.1+    160908 W85  0.0   0.2+    160909 807  0.0   0.2-
160907 F51  0.1-  0.0     160908 W85  0.2+  0.2+    160909 807  0.1+  0.1-
160907 F51  0.0   0.1-    160908 W85  0.2+  0.2+    160912 807  0.1-  0.2+
160907 F51  0.0   0.0     160908 568  0.2+  0.1+    160912 807  0.1-  0.1-
160908 807  0.1-  0.1-    160908 568  0.1+  0.2+    160912 807  0.0   0.1-

Ephemeris:
2016 RQ33                a,e,i = 1.31, 0.30, 33                  q = 0.9120
Date    TT    R. A. (2000) Decl.     Delta      r     Elong.  Phase     V
2016 08 15    02 51 01.3 -30 33 13   0.8915  1.5350   107.3    39.1    21.3
...
2016 08 30    02 36 35.2 -32 10 55   0.8141  1.5793   119.6    33.8    21.1
...
2016 09 07    02 21 29.4 -32 57 17   0.7785  1.6002   126.8    30.3    20.9
...
2016 09 13    02 06 37.3 -33 17 54   0.7569  1.6146   132.1    27.5    20.8
2016 09 14    02 03 52.1 -33 19 33   0.7539  1.6169   133.0    27.1    20.7
2016 09 15    02 01 02.4 -33 20 36   0.7511  1.6192   133.9    26.6    20.7
...
2016 09 21    01 42 42.7 -33 12 17   0.7380  1.6322   138.6    24.0    20.6
...
2016 09 29    01 15 50.6 -32 14 50   0.7331  1.6478   143.1    21.4    20.6
...
2016 10 14    00 27 17.5 -27 55 17   0.7692  1.6719   142.0    21.6    20.7

A. U. Tomatic                (C) Copyright 2016 MPC           M.P.E.C. 2016-R145




More information about the Iaude mailing list